Flag for Germany Weather past 2 weeks in Osterholz-Scharmbeck, Lower Saxony, Germany

Now
39 °F

Thundershowers. Low clouds.


Feels Like: 31 °F
Forecast: 38 / 47 °F
Wind: 12 mph from Northwest

Location: Bremen

Current Time: Dec 20, 2014 at 2:11:01 PM

Latest Report: Dec 20, 2014 at 1:00 PM


Visibility: 2 mi

Pressure: 29.84 "Hg

Humidity: 93%

Dew point: 37 °F

Location of Osterholz-ScharmbeckLocation

Historic Weather in Osterholz-Scharmbeck — Graph

°F

Osterholz-Scharmbeck temperature yesterday

Maximum temperature yesterday: 53 °F (at 2:00 AM)
Minimum temperature yesterday: 42 °F (at 11:00 PM)
Average temperature yesterday: 49 °F

Past Weeks' High & Low Weather Summary

 TemperatureHumidityPressure
High54 °F (Dec 18, 8:00 PM)100% (Dec 6, 9:00 PM)30.34 "Hg (Dec 6, 9:00 PM)
Low33 °F (Dec 13, 9:00 PM)69% (Dec 10, 5:00 AM)29.23 "Hg (Dec 12, 12:00 PM)
Average41 °F89%29.86 "Hg
* Reported Dec 5 12:00 Noon — Dec 20 12:00 Noon, Osterholz-Scharmbeck, Weather by CustomWeather, © 2014

Note: Actual official high and low records may vary slightly from our data, if they occured in-between our weather recording intervals... More about our weather records

Advertising

Osterholz-Scharmbeck weather history for previous 24 hours

 ConditionsComfort  
Time TempWeatherWind HumidityBarometerVisibility
12:00 PM
Dec 20
46 °FOvercast.15 mph73%29.82 "Hg14 mi
11:00 AM45 °FOvercast.14 mph76%29.84 "Hg14 mi
9:00 AM45 °FOvercast.13 mph75%29.86 "Hg16 mi
8:00 AM45 °FOvercast.13 mph75%29.87 "Hg19 mi
7:00 AM44 °FSprinkles. Passing clouds.12 mph78%29.90 "Hg19 mi
6:00 AM44 °FPassing clouds.13 mph77%29.90 "Hg19 mi
5:00 AM45 °FPassing clouds.13 mph74%29.91 "Hg19 mi
3:00 AM43 °FPassing clouds.12 mph79%29.91 "Hg19 mi
2:00 AM42 °FPassing clouds.10 mph79%29.90 "Hg19 mi
1:00 AM42 °FPassing clouds.12 mph80%29.90 "Hg19 mi
12:00 AM42 °FPassing clouds.10 mph81%29.89 "Hg19 mi
11:00 PM
Dec 19
42 °FSprinkles. Passing clouds.8 mph88%29.88 "Hg19 mi
9:00 PM42 °FClear.9 mph81%29.87 "Hg19 mi
8:00 PM44 °FQuite cool.12 mph76%29.85 "HgN/A
7:00 PM44 °FPassing clouds.9 mph80%29.82 "Hg19 mi
6:00 PM44 °FPassing clouds.9 mph80%29.80 "Hg16 mi
5:00 PM44 °FPassing clouds.9 mph77%29.78 "Hg16 mi
3:00 PM47 °FOvercast.8 mph83%29.73 "Hg14 mi
2:00 PM48 °FOvercast.8 mph84%29.72 "Hg19 mi
Weather by CustomWeather, © 2014

See weather overviewHow to use our weather pages